| time (UTC) | temp F | wind direction | speed knots | gust knots | rain 1hr in | rain 24hr in | rain mn in | humidity % | barometer mb |
| 20260505140513 | 59 | 345 | 0.0 | 1.7 | 0.00 | 0.00 | 0.00 | 69 | 1012.0 |
| 20260505125013 | 59 | 355 | 0.0 | 2.6 | 0.00 | 0.00 | 0.00 | 70 | 1012.4 |
| 20260505124512 | 59 | 5 | 0.0 | 1.7 | 0.00 | 0.00 | 0.00 | 70 | 1012.4 |
| 20260505124007 | 59 | 5 | 0.9 | 2.6 | 0.00 | 0.00 | 0.00 | 69 | 1012.4 |
| 20260505123505 | 59 | 28 | 0.0 | 2.6 | 0.00 | 0.00 | 0.00 | 70 | 1012.4 |
| 20260505123005 | 59 | 330 | 0.0 | 3.5 | 0.00 | 0.00 | 0.00 | 69 | 1012.4 |
| 20260505122506 | 59 | 349 | 1.7 | 3.5 | 0.00 | 0.00 | 0.00 | 68 | 1012.4 |
| 20260505122005 | 59 | 11 | 0.9 | 3.5 | 0.00 | 0.00 | 0.00 | 68 | 1012.4 |
| 20260505121514 | 58 | 21 | 0.9 | 5.2 | 0.00 | 0.00 | 0.00 | 70 | 1012.4 |
| 20260505121005 | 58 | 54 | 0.9 | 5.2 | 0.00 | 0.00 | 0.00 | 70 | 1012.4 |
| 20260505120505 | 58 | 20 | 0.9 | 5.2 | 0.00 | 0.00 | 0.00 | 70 | 1012.4 |
| 20260505120004 | 58 | 22 | 0.9 | 7.8 | 0.00 | 0.00 | 0.00 | 69 | 1012.3 |
| 20260505115502 | 59 | 340 | 0.9 | 7.8 | 0.00 | 0.00 | 0.00 | 68 | 1012.4 |
| 20260505115003 | 59 | 9 | 1.7 | 6.1 | 0.00 | 0.00 | 0.00 | 70 | 1012.4 |
| 20260505114503 | 58 | 38 | 0.9 | 4.3 | 0.00 | 0.00 | 0.00 | 71 | 1012.4 |
| 20260505114003 | 59 | 40 | 0.9 | 4.3 | 0.00 | 0.00 | 0.00 | 69 | 1012.4 |
| 20260505113502 | 60 | 329 | 0.9 | 3.5 | 0.00 | 0.00 | 0.00 | 69 | 1012.4 |
| 20260505113117 | 60 | 246 | 0.0 | 2.6 | 0.00 | 0.00 | 0.00 | 68 | 1012.4 |
| 20260505112559 | 61 | 355 | 0.9 | 2.6 | 0.00 | 0.00 | 0.00 | 69 | 1012.4 |
| 20260505112058 | 58 | 34 | 0.0 | 3.5 | 0.00 | 0.00 | 0.00 | 75 | 1012.5 |
| 20260505111558 | 56 | 316 | 0.9 | 7.0 | 0.00 | 0.00 | 0.00 | 74 | 1012.6 |
| 20260505111058 | 56 | 149 | 0.9 | 7.0 | 0.00 | 0.00 | 0.00 | 74 | 1012.7 |
| 20260505110600 | 57 | 40 | 0.9 | 3.5 | 0.00 | 0.00 | 0.00 | 72 | 1012.7 |
| 20260505110116 | 58 | 19 | 0.0 | 3.5 | 0.00 | 0.00 | 0.00 | 72 | 1012.7 |
| 20260505102051 | 57 | 39 | 0.9 | 5.2 | 0.00 | 0.00 | 0.00 | 75 | 1013.0 |
| 20260505101552 | 57 | 360 | 1.7 | 6.1 | 0.00 | 0.00 | 0.00 | 73 | 1013.0 |
| 20260505101050 | 57 | 41 | 0.9 | 4.3 | 0.00 | 0.00 | 0.00 | 74 | 1013.0 |
| 20260505100551 | 57 | 35 | 0.9 | 4.3 | 0.00 | 0.00 | 0.00 | 77 | 1013.1 |
| 20260505100050 | 56 | 5 | 0.9 | 4.3 | 0.00 | 0.00 | 0.00 | 78 | 1013.0 |
| 20260505095550 | 55 | 68 | 0.9 | 7.8 | 0.00 | 0.00 | 0.00 | 78 | 1013.0 |
| 20260505095049 | 55 | 360 | 0.9 | 7.8 | 0.00 | 0.00 | 0.00 | 78 | 1013.0 |
| 20260505094556 | 56 | 333 | 1.7 | 4.3 | 0.00 | 0.00 | 0.00 | 77 | 1013.1 |
| 20260505094048 | 57 | 340 | 0.0 | 3.5 | 0.00 | 0.00 | 0.00 | 76 | 1013.1 |
| 20260505093548 | 57 | 5 | 0.0 | 3.5 | 0.00 | 0.00 | 0.00 | 76 | 1013.1 |
| 20260505093053 | 57 | 9 | 0.9 | 3.5 | 0.00 | 0.00 | 0.00 | 78 | 1013.2 |
| 20260505092545 | 56 | 23 | 0.9 | 4.3 | 0.00 | 0.00 | 0.00 | 81 | 1013.2 |
| 20260505092044 | 54 | 51 | 0.9 | 4.3 | 0.00 | 0.00 | 0.00 | 81 | 1013.2 |
| 20260505091546 | 54 | 360 | 0.9 | 2.6 | 0.00 | 0.00 | 0.00 | 81 | 1013.1 |
| 20260505091044 | 54 | 80 | 0.0 | 3.5 | 0.00 | 0.00 | 0.00 | 82 | 1013.1 |
| 20260505090544 | 54 | 17 | 0.0 | 3.5 | 0.00 | 0.00 | 0.00 | 82 | 1013.1 |
| 20260505090046 | 54 | 22 | 0.0 | 3.5 | 0.00 | 0.00 | 0.00 | 81 | 1013.1 |
| 20260505085544 | 54 | 344 | 0.0 | 4.3 | 0.00 | 0.00 | 0.00 | 80 | 1013.0 |
| 20260505085043 | 55 | 24 | 0.9 | 4.3 | 0.00 | 0.00 | 0.00 | 78 | 1013.1 |
| 20260505084552 | 56 | 343 | 0.9 | 4.3 | 0.00 | 0.00 | 0.00 | 79 | 1013.2 |
| 20260505084042 | 55 | 55 | 0.9 | 3.5 | 0.00 | 0.00 | 0.00 | 79 | 1013.2 |
| 20260505083540 | 55 | 35 | 0.9 | 3.5 | 0.00 | 0.00 | 0.00 | 82 | 1013.2 |
| 20260505083051 | 54 | 34 | 0.0 | 3.5 | 0.00 | 0.00 | 0.00 | 81 | 1013.3 |
| 20260505082538 | 54 | 32 | 0.0 | 3.5 | 0.00 | 0.00 | 0.00 | 81 | 1013.4 |
| 20260505082038 | 54 | 40 | 0.9 | 4.3 | 0.00 | 0.00 | 0.00 | 81 | 1013.3 |
| 20260505081538 | 54 | 19 | 0.9 | 4.3 | 0.00 | 0.00 | 0.00 | 81 | 1013.4 |
| 20260505081038 | 54 | 59 | 0.0 | 3.5 | 0.00 | 0.00 | 0.00 | 81 | 1013.4 |
| 20260505080539 | 54 | 5 | 1.7 | 4.3 | 0.00 | 0.00 | 0.00 | 81 | 1013.3 |
| 20260505080046 | 54 | 13 | 0.9 | 5.2 | 0.00 | 0.00 | 0.00 | 82 | 1013.3 |
| 20260505075535 | 54 | 24 | 0.9 | 5.2 | 0.00 | 0.00 | 0.00 | 83 | 1013.2 |
| 20260505075035 | 54 | 315 | 2.6 | 5.2 | 0.00 | 0.00 | 0.00 | 83 | 1013.1 |
| 20260505074534 | 53 | 342 | 0.0 | 4.3 | 0.00 | 0.00 | 0.00 | 84 | 1013.3 |
| 20260505074033 | 53 | 13 | 0.9 | 4.3 | 0.00 | 0.00 | 0.00 | 84 | 1013.2 |
| 20260505073532 | 53 | 57 | 0.0 | 4.3 | 0.00 | 0.00 | 0.00 | 84 | 1013.2 |
| 20260505073035 | 53 | 340 | 0.0 | 2.6 | 0.00 | 0.00 | 0.00 | 85 | 1013.3 |
| 20260505072531 | 52 | 5 | 0.9 | 4.3 | 0.00 | 0.00 | 0.00 | 86 | 1013.4 |
| 20260505072031 | 52 | 63 | 0.9 | 4.3 | 0.00 | 0.00 | 0.00 | 86 | 1013.4 |
| 20260505071543 | 52 | 48 | 0.0 | 4.3 | 0.00 | 0.00 | 0.00 | 86 | 1013.4 |
| 20260505071032 | 52 | 19 | 1.7 | 4.3 | 0.00 | 0.00 | 0.00 | 86 | 1013.4 |
| 20260505070530 | 52 | 304 | 0.9 | 4.3 | 0.00 | 0.00 | 0.00 | 87 | 1013.4 |
| 20260505070029 | 52 | 53 | 0.0 | 3.5 | 0.00 | 0.00 | 0.00 | 87 | 1013.5 |
| 20260505065528 | 51 | 336 | 0.0 | 3.5 | 0.00 | 0.00 | 0.00 | 88 | 1013.5 |
| 20260505065026 | 51 | 324 | 0.9 | 3.5 | 0.00 | 0.00 | 0.00 | 88 | 1013.5 |
| 20260505064532 | 51 | 332 | 0.9 | 2.6 | 0.00 | 0.00 | 0.00 | 88 | 1013.5 |
| 20260505064027 | 51 | 334 | 0.9 | 3.5 | 0.00 | 0.00 | 0.00 | 89 | 1013.4 |
| 20260505063524 | 50 | 65 | 0.0 | 3.5 | 0.00 | 0.00 | 0.00 | 90 | 1013.4 |
| 20260505063023 | 50 | 17 | 0.0 | 1.7 | 0.00 | 0.00 | 0.00 | 91 | 1013.3 |
| 20260505062525 | 50 | 338 | 0.0 | 1.7 | 0.00 | 0.00 | 0.00 | 91 | 1013.3 |
| 20260505062021 | 49 | 9 | 0.0 | 0.0 | 0.00 | 0.00 | 0.00 | 91 | 1013.3 |
| 20260505061521 | 49 | 344 | 0.0 | 1.7 | 0.00 | 0.00 | 0.00 | 92 | 1013.3 |
| 20260505061020 | 49 | 334 | 0.0 | 1.7 | 0.00 | 0.00 | 0.00 | 92 | 1013.2 |
| 20260505060520 | 49 | 337 | 0.0 | 1.7 | 0.00 | 0.00 | 0.00 | 92 | 1013.3 |
| 20260505060027 | 48 | 346 | 0.0 | 2.6 | 0.00 | 0.00 | 0.00 | 92 | 1013.3 |
| 20260505055520 | 48 | 348 | 0.0 | 2.6 | 0.00 | 0.00 | 0.00 | 92 | 1013.3 |
| 20260505055017 | 48 | 17 | 0.0 | 2.6 | 0.00 | 0.00 | 0.00 | 93 | 1013.3 |
| 20260505054516 | 48 | 355 | 0.0 | 0.9 | 0.00 | 0.00 | 0.00 | 93 | 1013.3 |
| 20260505054015 | 47 | 360 | 0.0 | 1.7 | 0.00 | 0.00 | 0.00 | 93 | 1013.4 |
| 20260505053515 | 47 | 15 | 0.0 | 1.7 | 0.00 | 0.00 | 0.00 | 93 | 1013.4 |
| 20260505053014 | 47 | 30 | 0.0 | 1.7 | 0.00 | 0.00 | 0.00 | 92 | 1013.4 |
| 20260505052515 | 47 | 47 | 0.0 | 1.7 | 0.00 | 0.00 | 0.00 | 92 | 1013.3 |
| 20260505052012 | 47 | 5 | 0.0 | 1.7 | 0.00 | 0.00 | 0.00 | 92 | 1013.4 |
| 20260505051512 | 47 | 22 | 0.0 | 1.7 | 0.00 | 0.00 | 0.00 | 92 | 1013.4 |
| 20260505051013 | 47 | 325 | 0.0 | 3.5 | 0.00 | 0.00 | 0.00 | 92 | 1013.4 |
| 20260505050510 | 47 | 344 | 0.9 | 3.5 | 0.00 | 0.00 | 0.00 | 92 | 1013.4 |
| 20260505041509 | 48 | 45 | 0.0 | 1.7 | 0.00 | 0.00 | 0.00 | 92 | 1013.6 |
| 20260505041009 | 48 | 11 | 0.0 | 1.7 | 0.00 | 0.00 | 0.00 | 92 | 1013.7 |
| 20260505040507 | 48 | 17 | 0.0 | 1.7 | 0.00 | 0.00 | 0.00 | 93 | 1013.7 |
| 20260505040006 | 48 | 13 | 0.0 | 1.7 | 0.00 | 0.00 | 0.00 | 93 | 1013.6 |
| 20260505035508 | 48 | 9 | 0.0 | 1.7 | 0.00 | 0.00 | 0.00 | 93 | 1013.6 |
| 20260505035008 | 48 | 9 | 0.0 | 1.7 | 0.00 | 0.00 | 0.00 | 93 | 1013.6 |
| 20260505034505 | 48 | 360 | 0.0 | 1.7 | 0.00 | 0.00 | 0.00 | 93 | 1013.7 |
| 20260505034005 | 48 | 21 | 0.0 | 1.7 | 0.00 | 0.00 | 0.00 | 93 | 1013.6 |
| 20260505033508 | 48 | 24 | 0.0 | 1.7 | 0.00 | 0.00 | 0.00 | 93 | 1013.6 |
| 20260505033005 | 48 | 355 | 0.0 | 1.7 | 0.00 | 0.00 | 0.00 | 93 | 1013.6 |
| 20260505032505 | 47 | 355 | 0.0 | 1.7 | 0.00 | 0.00 | 0.00 | 93 | 1013.6 |
| 20260505032005 | 47 | 21 | 0.0 | 1.7 | 0.00 | 0.00 | 0.00 | 93 | 1013.7 |
| 20260505031504 | 47 | 21 | 0.0 | 1.7 | 0.00 | 0.00 | 0.00 | 93 | 1013.7 |
| 20260505031004 | 47 | 21 | 0.0 | 1.7 | 0.00 | 0.00 | 0.00 | 93 | 1013.6 |
| 20260505030504 | 47 | 32 | 0.0 | 1.7 | 0.00 | 0.00 | 0.00 | 93 | 1013.6 |
| 20260505030004 | 47 | 32 | 0.0 | 0.0 | 0.00 | 0.00 | 0.00 | 93 | 1013.4 |
| 20260505025503 | 47 | 32 | 0.0 | 0.0 | 0.00 | 0.00 | 0.00 | 93 | 1013.5 |
| 20260505025002 | 47 | 32 | 0.0 | 0.0 | 0.00 | 0.00 | 0.00 | 93 | 1013.5 |
| 20260505024502 | 47 | 32 | 0.0 | 0.0 | 0.00 | 0.00 | 0.00 | 93 | 1013.6 |
| 20260505024005 | 46 | 32 | 0.0 | 0.0 | 0.00 | 0.00 | 0.00 | 93 | 1013.6 |
| 20260505023501 | 46 | 32 | 0.0 | 0.0 | 0.00 | 0.00 | 0.00 | 93 | 1013.6 |
| 20260505023101 | 46 | 32 | 0.0 | 1.7 | 0.00 | 0.00 | 0.00 | 92 | 1013.5 |
| 20260505022600 | 46 | 32 | 0.0 | 1.7 | 0.00 | 0.00 | 0.00 | 92 | 1013.5 |
| 20260505022058 | 46 | 32 | 0.0 | 0.0 | 0.00 | 0.00 | 0.00 | 92 | 1013.5 |
| 20260505021559 | 46 | 32 | 0.0 | 1.7 | 0.00 | 0.00 | 0.00 | 92 | 1013.6 |
| 20260505021057 | 47 | 32 | 0.0 | 1.7 | 0.00 | 0.00 | 0.00 | 91 | 1013.5 |
| 20260505020602 | 47 | 32 | 0.0 | 0.0 | 0.00 | 0.00 | 0.00 | 91 | 1013.6 |
| 20260505020056 | 47 | 32 | 0.0 | 0.9 | 0.00 | 0.00 | 0.00 | 91 | 1013.6 |
| 20260505015556 | 48 | 32 | 0.0 | 0.9 | 0.00 | 0.00 | 0.00 | 90 | 1013.6 |
| 20260505015057 | 48 | 32 | 0.0 | 1.7 | 0.00 | 0.00 | 0.00 | 90 | 1013.6 |
| 20260505014604 | 49 | 32 | 0.0 | 1.7 | 0.00 | 0.00 | 0.00 | 90 | 1013.7 |
| 20260505014056 | 49 | 32 | 0.0 | 1.7 | 0.00 | 0.00 | 0.00 | 90 | 1013.7 |
| 20260505013550 | 49 | 32 | 0.0 | 1.7 | 0.00 | 0.00 | 0.00 | 89 | 1013.8 |
| 20260505013050 | 50 | 32 | 0.0 | 1.7 | 0.00 | 0.00 | 0.00 | 89 | 1013.8 |
| 20260505012548 | 50 | 32 | 0.0 | 1.7 | 0.00 | 0.00 | 0.00 | 89 | 1013.8 |
| 20260505012048 | 50 | 27 | 0.0 | 1.7 | 0.00 | 0.00 | 0.00 | 89 | 1014.0 |
| 20260505011551 | 50 | 27 | 0.0 | 1.7 | 0.00 | 0.00 | 0.00 | 89 | 1014.0 |
| 20260505011046 | 51 | 27 | 0.0 | 1.7 | 0.00 | 0.00 | 0.00 | 88 | 1014.1 |
| 20260505010545 | 51 | 22 | 0.0 | 1.7 | 0.00 | 0.00 | 0.00 | 88 | 1014.0 |
| 20260505010043 | 51 | 17 | 0.0 | 1.7 | 0.00 | 0.00 | 0.00 | 88 | 1014.0 |
| 20260505005542 | 52 | 17 | 0.0 | 0.9 | 0.00 | 0.00 | 0.00 | 88 | 1014.1 |
| 20260505005042 | 52 | 17 | 0.0 | 1.7 | 0.00 | 0.00 | 0.00 | 88 | 1014.2 |
| 20260505004541 | 52 | 19 | 0.0 | 1.7 | 0.00 | 0.00 | 0.00 | 88 | 1014.3 |
| 20260505004041 | 52 | 19 | 0.0 | 1.7 | 0.00 | 0.00 | 0.00 | 88 | 1014.3 |
| 20260505003540 | 52 | 16 | 0.0 | 1.7 | 0.00 | 0.00 | 0.00 | 88 | 1014.2 |
| 20260505003039 | 52 | 16 | 0.0 | 1.7 | 0.00 | 0.00 | 0.00 | 87 | 1014.2 |
| 20260505002542 | 52 | 16 | 0.0 | 1.7 | 0.00 | 0.00 | 0.00 | 87 | 1014.3 |
| 20260505002039 | 52 | 16 | 0.0 | 1.7 | 0.00 | 0.00 | 0.00 | 87 | 1014.4 |
| 20260505001544 | 52 | 32 | 0.0 | 0.9 | 0.00 | 0.00 | 0.00 | 87 | 1014.4 |
| 20260505001037 | 52 | 32 | 0.0 | 1.7 | 0.00 | 0.00 | 0.00 | 87 | 1014.4 |
| 20260505000537 | 53 | 32 | 0.0 | 1.7 | 0.00 | 0.00 | 0.00 | 86 | 1014.3 |
| 20260505000037 | 53 | 14 | 0.0 | 1.7 | 0.00 | 0.00 | 0.00 | 86 | 1014.4 |
| 20260504235540 | 53 | 11 | 0.0 | 1.7 | 0.00 | 0.00 | 0.00 | 86 | 1014.3 |
| 20260504235037 | 53 | 11 | 0.0 | 1.7 | 0.00 | 0.00 | 0.00 | 86 | 1014.3 |
| 20260504234535 | 53 | 13 | 0.0 | 1.7 | 0.00 | 0.00 | 0.00 | 86 | 1014.4 |
| 20260504234034 | 53 | 355 | 0.0 | 1.7 | 0.00 | 0.00 | 0.00 | 85 | 1014.4 |
| 20260504233534 | 53 | 355 | 0.0 | 1.7 | 0.00 | 0.00 | 0.00 | 85 | 1014.5 |
| 20260504233034 | 53 | 35 | 0.0 | 1.7 | 0.00 | 0.00 | 0.00 | 85 | 1014.5 |
| 20260504232533 | 53 | 27 | 0.0 | 1.7 | 0.00 | 0.00 | 0.00 | 85 | 1014.5 |
| 20260504232033 | 53 | 32 | 0.0 | 1.7 | 0.00 | 0.00 | 0.00 | 85 | 1014.5 |
| 20260504231533 | 53 | 55 | 0.0 | 1.7 | 0.00 | 0.00 | 0.00 | 85 | 1014.5 |
| 20260504231032 | 53 | 33 | 0.0 | 1.7 | 0.00 | 0.00 | 0.00 | 85 | 1014.4 |
| 20260504230531 | 53 | 42 | 0.0 | 1.7 | 0.00 | 0.00 | 0.00 | 85 | 1014.4 |
| 20260504230030 | 54 | 42 | 0.0 | 1.7 | 0.00 | 0.00 | 0.00 | 84 | 1014.4 |
| 20260504225530 | 54 | 42 | 0.0 | 1.7 | 0.00 | 0.00 | 0.00 | 85 | 1014.4 |
| 20260504225032 | 54 | 59 | 0.0 | 2.6 | 0.00 | 0.00 | 0.00 | 85 | 1014.4 |
| 20260504224536 | 54 | 30 | 0.0 | 2.6 | 0.00 | 0.00 | 0.00 | 85 | 1014.4 |
| 20260504224030 | 54 | 21 | 0.0 | 1.7 | 0.00 | 0.00 | 0.00 | 85 | 1014.4 |
| 20260504223531 | 54 | 35 | 0.0 | 1.7 | 0.00 | 0.00 | 0.00 | 85 | 1014.5 |
| 20260504223029 | 54 | 11 | 0.0 | 1.7 | 0.00 | 0.00 | 0.00 | 85 | 1014.5 |
| 20260504222528 | 54 | 11 | 0.0 | 1.7 | 0.00 | 0.00 | 0.00 | 85 | 1014.5 |
| 20260504222032 | 54 | 11 | 0.0 | 1.7 | 0.00 | 0.00 | 0.00 | 85 | 1014.6 |
| 20260504221629 | 54 | 11 | 0.0 | 1.7 | 0.00 | 0.00 | 0.00 | 85 | 1014.6 |
| 20260504221028 | 54 | 11 | 0.0 | 1.7 | 0.00 | 0.00 | 0.00 | 84 | 1014.7 |
| 20260504220528 | 54 | 41 | 0.0 | 1.7 | 0.00 | 0.00 | 0.00 | 84 | 1014.7 |
| 20260504220028 | 54 | 48 | 0.0 | 1.7 | 0.00 | 0.00 | 0.00 | 83 | 1014.7 |
| 20260504215528 | 54 | 5 | 0.0 | 1.7 | 0.00 | 0.00 | 0.00 | 83 | 1014.7 |
| 20260504215028 | 54 | 71 | 0.0 | 1.7 | 0.00 | 0.00 | 0.00 | 83 | 1014.7 |
| 20260504214528 | 54 | 40 | 0.0 | 1.7 | 0.00 | 0.00 | 0.00 | 83 | 1014.7 |
| 20260504214030 | 55 | 59 | 0.0 | 1.7 | 0.00 | 0.00 | 0.00 | 83 | 1014.7 |
| 20260504213527 | 55 | 37 | 0.0 | 1.7 | 0.00 | 0.00 | 0.00 | 83 | 1014.7 |
| 20260504213027 | 55 | 40 | 0.0 | 3.5 | 0.00 | 0.00 | 0.00 | 82 | 1014.7 |
| 20260504212526 | 55 | 360 | 0.0 | 3.5 | 0.00 | 0.00 | 0.00 | 82 | 1014.7 |
| 20260504212030 | 55 | 13 | 0.9 | 2.6 | 0.00 | 0.00 | 0.00 | 82 | 1014.7 |
| 20260504211526 | 55 | 34 | 0.0 | 2.6 | 0.00 | 0.00 | 0.00 | 82 | 1014.8 |
| 20260504211025 | 55 | 21 | 0.0 | 2.6 | 0.00 | 0.00 | 0.00 | 82 | 1014.8 |
| 20260504210525 | 55 | 350 | 0.0 | 3.5 | 0.00 | 0.00 | 0.00 | 82 | 1014.8 |
| 20260504210035 | 55 | 21 | 0.9 | 3.5 | 0.00 | 0.00 | 0.00 | 83 | 1014.7 |
| 20260504205525 | 55 | 49 | 0.9 | 2.6 | 0.00 | 0.00 | 0.00 | 83 | 1014.7 |
| 20260504205024 | 55 | 360 | 0.0 | 1.7 | 0.00 | 0.00 | 0.00 | 83 | 1014.7 |
| 20260504204532 | 55 | 32 | 0.0 | 1.7 | 0.00 | 0.00 | 0.00 | 83 | 1014.7 |
| 20260504204026 | 55 | 332 | 0.0 | 1.7 | 0.00 | 0.00 | 0.00 | 83 | 1014.7 |
| 20260504203524 | 55 | 329 | 0.0 | 1.7 | 0.00 | 0.00 | 0.00 | 83 | 1014.7 |
| 20260504203026 | 55 | 340 | 0.0 | 1.7 | 0.00 | 0.00 | 0.00 | 83 | 1014.7 |
| 20260504202523 | 55 | 360 | 0.9 | 1.7 | 0.00 | 0.00 | 0.00 | 83 | 1014.7 |
| 20260504202022 | 55 | 355 | 0.9 | 1.7 | 0.00 | 0.00 | 0.00 | 83 | 1014.6 |
| 20260504201521 | 56 | 360 | 0.0 | 2.6 | 0.00 | 0.00 | 0.00 | 83 | 1014.6 |
| 20260504201020 | 56 | 19 | 0.0 | 2.6 | 0.00 | 0.00 | 0.00 | 83 | 1014.6 |
| 20260504200520 | 56 | 16 | 0.0 | 1.7 | 0.00 | 0.00 | 0.00 | 83 | 1014.5 |
| 20260504200020 | 56 | 9 | 0.0 | 1.7 | 0.00 | 0.00 | 0.00 | 83 | 1014.4 |
| 20260504195519 | 56 | 350 | 0.0 | 1.7 | 0.00 | 0.00 | 0.00 | 83 | 1014.5 |
| 20260504195019 | 56 | 355 | 0.0 | 1.7 | 0.00 | 0.00 | 0.00 | 84 | 1014.5 |
| 20260504194519 | 56 | 355 | 0.0 | 1.7 | 0.00 | 0.00 | 0.00 | 84 | 1014.4 |
| 20260504194019 | 56 | 355 | 0.0 | 1.7 | 0.00 | 0.00 | 0.00 | 83 | 1014.3 |
| 20260504193519 | 56 | 5 | 0.0 | 1.7 | 0.00 | 0.00 | 0.00 | 83 | 1014.3 |
| 20260504193018 | 56 | 26 | 0.0 | 1.7 | 0.00 | 0.00 | 0.00 | 83 | 1014.2 |
| 20260504192518 | 56 | 26 | 0.0 | 1.7 | 0.00 | 0.00 | 0.00 | 83 | 1014.2 |
| 20260504192018 | 56 | 19 | 0.0 | 1.7 | 0.00 | 0.00 | 0.00 | 82 | 1014.2 |
| 20260504191518 | 56 | 39 | 0.0 | 1.7 | 0.00 | 0.00 | 0.00 | 82 | 1014.1 |
| 20260504191021 | 56 | 60 | 0.0 | 1.7 | 0.00 | 0.00 | 0.00 | 82 | 1014.1 |
| 20260504190518 | 57 | 51 | 0.0 | 1.7 | 0.00 | 0.00 | 0.00 | 81 | 1014.1 |
| 20260504190017 | 57 | 28 | 0.0 | 1.7 | 0.00 | 0.00 | 0.00 | 81 | 1014.1 |
| 20260504185517 | 57 | 13 | 0.0 | 1.7 | 0.00 | 0.00 | 0.00 | 80 | 1014.1 |
| 20260504185018 | 57 | 13 | 0.0 | 1.7 | 0.00 | 0.00 | 0.00 | 80 | 1014.1 |
| 20260504184517 | 57 | 360 | 0.0 | 3.5 | 0.00 | 0.00 | 0.00 | 80 | 1014.1 |
| 20260504184017 | 57 | 28 | 0.0 | 3.5 | 0.00 | 0.00 | 0.00 | 80 | 1014.0 |
| 20260504183517 | 57 | 22 | 0.0 | 2.6 | 0.00 | 0.00 | 0.00 | 80 | 1014.0 |
| 20260504183016 | 57 | 5 | 0.0 | 3.5 | 0.00 | 0.00 | 0.00 | 80 | 1014.0 |
| 20260504182516 | 57 | 5 | 0.0 | 4.3 | 0.00 | 0.00 | 0.00 | 79 | 1013.9 |
| 20260504182016 | 57 | 36 | 0.9 | 4.3 | 0.00 | 0.00 | 0.00 | 79 | 1013.9 |
| 20260504181516 | 57 | 36 | 0.0 | 4.3 | 0.00 | 0.00 | 0.00 | 79 | 1013.9 |
| 20260504181016 | 57 | 339 | 0.0 | 4.3 | 0.00 | 0.00 | 0.00 | 79 | 1013.9 |
| 20260504180516 | 58 | 77 | 0.9 | 4.3 | 0.00 | 0.00 | 0.00 | 80 | 1013.7 |
| 20260504180015 | 58 | 51 | 0.0 | 2.6 | 0.00 | 0.00 | 0.00 | 79 | 1013.8 |
| 20260504175515 | 58 | 349 | 0.9 | 3.5 | 0.00 | 0.00 | 0.00 | 79 | 1013.8 |
| 20260504175015 | 58 | 51 | 0.0 | 5.2 | 0.00 | 0.00 | 0.00 | 78 | 1013.7 |
| 20260504174515 | 58 | 32 | 0.9 | 5.2 | 0.00 | 0.00 | 0.00 | 79 | 1013.7 |
| 20260504174015 | 58 | 39 | 0.9 | 4.3 | 0.00 | 0.00 | 0.00 | 78 | 1013.7 |
| 20260504173515 | 58 | 15 | 1.7 | 5.2 | 0.00 | 0.00 | 0.00 | 78 | 1013.6 |
| 20260504173014 | 58 | 22 | 0.9 | 5.2 | 0.00 | 0.00 | 0.00 | 77 | 1013.7 |
| 20260504172513 | 59 | 60 | 1.7 | 3.5 | 0.00 | 0.00 | 0.00 | 77 | 1013.7 |
| 20260504172014 | 59 | 355 | 0.0 | 5.2 | 0.00 | 0.00 | 0.00 | 79 | 1013.7 |
| 20260504171514 | 58 | 36 | 0.9 | 7.0 | 0.00 | 0.00 | 0.00 | 77 | 1013.7 |
| 20260504171018 | 58 | 21 | 1.7 | 7.0 | 0.00 | 0.00 | 0.00 | 78 | 1013.7 |
| 20260504170517 | 58 | 24 | 0.9 | 5.2 | 0.00 | 0.00 | 0.00 | 77 | 1013.7 |
| 20260504151008 | 61 | 342 | 1.7 | 7.8 | 0.00 | 0.00 | 0.00 | 72 | 1013.6 |
| 20260504150509 | 62 | 14 | 0.9 | 3.5 | 0.00 | 0.00 | 0.00 | 71 | 1013.6 |